TimeCDT,TemperatureF,Dew PointF,Humidity,Sea Level PressureIn,VisibilityMPH,Wind Direction,Wind SpeedMPH,Gust SpeedMPH,PrecipitationIn,Events,Conditions,WindDirDegrees,DateUTC
12:01 AM,68.0,66.9,96,29.98,4.0,ESE,6.9,-,N/A,,Overcast,110,2013-10-15 05:01:00
12:14 AM,68.0,66.9,96,29.98,3.0,East,4.6,-,N/A,,Overcast,90,2013-10-15 05:14:00
12:53 AM,68.0,66.9,96,29.95,4.0,ESE,5.8,-,N/A,,Overcast,120,2013-10-15 05:53:00
1:53 AM,70.0,68.0,93,29.95,5.0,Variable,3.5,-,0.00,,Overcast,0,2013-10-15 06:53:00
2:01 AM,70.0,68.0,93,29.96,5.0,ESE,3.5,-,N/A,,Overcast,120,2013-10-15 07:01:00
2:53 AM,70.0,69.1,97,29.95,5.0,Calm,Calm,-,N/A,,Overcast,0,2013-10-15 07:53:00
3:10 AM,70.0,69.1,97,29.95,4.0,SE,3.5,-,0.00,Rain,Light Rain,130,2013-10-15 08:10:00
3:53 AM,70.0,69.1,97,29.94,4.0,Variable,3.5,-,0.00,Rain,Light Rain,0,2013-10-15 08:53:00
4:03 AM,70.0,69.1,97,29.94,4.0,Variable,3.5,-,0.00,Rain,Light Rain,0,2013-10-15 09:03:00
4:53 AM,70.0,69.1,97,29.92,4.0,ESE,4.6,-,0.00,,Overcast,120,2013-10-15 09:53:00
5:24 AM,71.1,69.1,93,29.93,4.0,Variable,3.5,-,N/A,,Overcast,0,2013-10-15 10:24:00
5:29 AM,71.1,70.0,96,29.93,4.0,Calm,Calm,-,N/A,,Overcast,0,2013-10-15 10:29:00
5:41 AM,71.1,69.1,93,29.93,4.0,South,3.5,-,N/A,,Overcast,190,2013-10-15 10:41:00
5:53 AM,71.1,70.0,96,29.92,4.0,Calm,Calm,-,N/A,,Overcast,0,2013-10-15 10:53:00
6:00 AM,71.1,70.0,96,29.93,4.0,Calm,Calm,-,N/A,,Overcast,0,2013-10-15 11:00:00
6:40 AM,71.1,70.0,96,29.93,3.0,SSE,3.5,-,N/A,,Overcast,160,2013-10-15 11:40:00
6:53 AM,71.1,70.0,96,29.92,4.0,South,5.8,-,N/A,,Overcast,190,2013-10-15 11:53:00
7:15 AM,71.1,70.0,96,29.92,3.0,SSE,5.8,-,0.00,Rain,Light Rain,150,2013-10-15 12:15:00
7:39 AM,71.1,70.0,96,29.93,4.0,SSE,6.9,18.4,0.01,Rain,Light Rain,150,2013-10-15 12:39:00
7:51 AM,71.6,69.8,94,29.93,4.0,Variable,6.9,-,0.01,,Overcast,0,2013-10-15 12:51:00
7:53 AM,71.1,70.0,96,29.91,4.0,South,8.1,-,0.01,,Overcast,180,2013-10-15 12:53:00
8:00 AM,71.1,70.0,96,29.93,3.0,South,13.8,18.4,N/A,,Overcast,190,2013-10-15 13:00:00
8:18 AM,71.1,70.0,96,29.93,2.5,SSW,5.8,-,0.00,Rain,Light Rain,200,2013-10-15 13:18:00
8:53 AM,72.0,71.1,97,29.91,2.0,SSW,5.8,-,0.00,Rain,Light Rain,200,2013-10-15 13:53:00
8:56 AM,72.0,71.1,97,29.93,1.8,SSW,6.9,-,0.01,Rain,Rain,210,2013-10-15 13:56:00
9:15 AM,72.0,71.1,97,29.93,2.5,SSW,3.5,-,0.04,,Overcast,210,2013-10-15 14:15:00
9:22 AM,72.0,71.1,97,29.93,2.5,SSW,5.8,-,0.04,Rain,Light Rain,200,2013-10-15 14:22:00
9:39 AM,72.0,71.1,97,29.92,3.0,SSW,4.6,-,0.04,,Overcast,210,2013-10-15 14:39:00
9:46 AM,72.0,71.1,97,29.93,2.5,SSW,4.6,-,0.04,,Overcast,210,2013-10-15 14:46:00
9:53 AM,72.0,71.1,97,29.91,2.5,SSW,4.6,-,0.04,,Overcast,210,2013-10-15 14:53:00
10:03 AM,72.0,71.1,97,29.93,3.0,SW,6.9,-,N/A,,Overcast,220,2013-10-15 15:03:00
10:17 AM,73.0,71.1,93,29.93,3.0,SW,5.8,-,N/A,,Overcast,220,2013-10-15 15:17:00
10:53 AM,73.0,72.0,96,29.92,3.0,SSW,6.9,-,N/A,,Overcast,210,2013-10-15 15:53:00
11:03 AM,73.0,72.0,96,29.93,3.0,SW,6.9,-,N/A,,Overcast,220,2013-10-15 16:03:00
11:26 AM,73.9,72.0,93,29.93,4.0,SW,5.8,-,N/A,,Overcast,220,2013-10-15 16:26:00
11:53 AM,73.9,72.0,93,29.92,5.0,SW,5.8,-,N/A,,Overcast,230,2013-10-15 16:53:00
12:23 PM,73.9,72.0,93,29.93,3.0,Variable,5.8,-,0.01,Rain,Rain,0,2013-10-15 17:23:00
12:32 PM,70.0,68.0,93,29.94,2.5,NNW,8.1,18.4,0.05,Rain,Rain,340,2013-10-15 17:32:00
12:39 PM,69.1,68.0,96,29.94,1.0,NNE,5.8,-,0.17,Rain,Heavy Rain,20,2013-10-15 17:39:00
12:53 PM,68.0,66.9,96,29.93,1.2,NNE,6.9,-,0.30,Rain,Heavy Rain,20,2013-10-15 17:53:00
1:05 PM,68.0,68.0,100,29.94,3.0,ENE,4.6,-,0.04,Rain,Light Rain,70,2013-10-15 18:05:00
1:14 PM,68.0,68.0,100,29.94,1.8,Calm,Calm,-,0.08,Rain,Rain,0,2013-10-15 18:14:00
1:33 PM,68.0,68.0,100,29.93,3.0,ENE,3.5,-,0.12,Rain,Light Rain,60,2013-10-15 18:33:00
1:53 PM,68.0,68.0,100,29.92,3.0,Calm,Calm,-,0.14,Rain,Rain,0,2013-10-15 18:53:00
1:59 PM,68.0,68.0,100,29.93,2.0,ENE,3.5,-,0.03,Rain,Rain,60,2013-10-15 18:59:00
2:08 PM,68.0,66.9,96,29.93,1.0,Calm,Calm,-,0.09,Rain,Heavy Rain,0,2013-10-15 19:08:00
2:30 PM,68.0,66.9,96,29.92,3.0,ENE,5.8,-,0.13,Rain,Light Rain,70,2013-10-15 19:30:00
2:53 PM,69.1,68.0,96,29.90,3.0,ENE,6.9,-,0.14,Rain,Light Rain,70,2013-10-15 19:53:00
3:53 PM,69.1,68.0,96,29.92,8.0,Calm,Calm,-,0.01,Rain,Light Rain,0,2013-10-15 20:53:00
4:04 PM,69.1,66.9,93,29.93,2.5,Calm,Calm,-,0.03,Rain,Rain,0,2013-10-15 21:04:00
4:19 PM,68.0,66.9,96,29.93,3.0,NE,3.5,-,0.06,Rain,Rain,50,2013-10-15 21:19:00
4:30 PM,68.0,68.0,100,29.94,2.5,Calm,Calm,-,0.09,Rain,Rain,0,2013-10-15 21:30:00
4:39 PM,68.0,66.9,96,29.93,3.0,East,6.9,-,0.12,Rain,Rain,90,2013-10-15 21:39:00
4:46 PM,68.0,66.9,96,29.93,4.0,East,6.9,-,0.12,Rain,Light Rain,100,2013-10-15 21:46:00
4:53 PM,68.0,66.0,93,29.92,6.0,East,6.9,-,0.12,Rain,Light Rain,100,2013-10-15 21:53:00
5:01 PM,66.9,66.9,100,29.93,6.0,East,8.1,-,0.00,Rain,Light Rain,90,2013-10-15 22:01:00
5:08 PM,66.9,66.0,97,29.93,5.0,East,6.9,-,0.00,Rain,Light Rain,80,2013-10-15 22:08:00
5:15 PM,66.9,66.0,97,29.93,5.0,East,6.9,-,0.00,Rain,Light Rain,90,2013-10-15 22:15:00
5:23 PM,66.9,66.0,97,29.93,5.0,East,5.8,-,0.00,Rain,Light Rain,80,2013-10-15 22:23:00
5:50 PM,66.2,66.2,100,29.93,10.0,ENE,4.6,-,0.00,Rain,Light Rain,70,2013-10-15 22:50:00
5:53 PM,66.9,66.0,97,29.92,10.0,ENE,3.5,-,0.00,Rain,Light Rain,70,2013-10-15 22:53:00
6:41 PM,66.9,66.0,97,29.95,10.0,Calm,Calm,-,0.00,Rain,Light Rain,0,2013-10-15 23:41:00
6:53 PM,66.0,66.0,100,29.94,9.0,East,4.6,-,0.00,Rain,Light Rain,90,2013-10-15 23:53:00
7:28 PM,66.0,64.9,96,29.96,9.0,East,3.5,-,0.00,Rain,Light Rain,100,2013-10-16 00:28:00
7:35 PM,66.0,64.9,96,29.96,7.0,ESE,3.5,-,0.00,Rain,Light Rain,110,2013-10-16 00:35:00
7:53 PM,66.0,64.9,96,29.96,6.0,East,3.5,-,0.01,Rain,Light Rain,80,2013-10-16 00:53:00
8:07 PM,66.0,64.9,96,29.97,6.0,East,3.5,-,0.00,Rain,Light Rain,90,2013-10-16 01:07:00
8:53 PM,66.0,64.9,96,29.96,5.0,ENE,4.6,-,0.02,Rain,Rain,60,2013-10-16 01:53:00
9:53 PM,64.9,64.9,100,29.97,5.0,NE,4.6,-,N/A,Rain,Light Rain,50,2013-10-16 02:53:00
10:32 PM,64.9,64.9,100,30.01,2.5,Calm,Calm,-,0.04,Rain,Rain,0,2013-10-16 03:32:00
10:53 PM,64.9,64.0,97,30.00,3.0,ENE,3.5,-,0.09,Rain,Rain,70,2013-10-16 03:53:00
11:41 PM,64.0,64.0,100,30.00,5.0,East,5.8,-,0.04,Rain,Light Rain,90,2013-10-16 04:41:00
11:53 PM,64.0,63.0,96,29.97,6.0,East,9.2,-,0.04,Rain,Light Rain,100,2013-10-16 04:53:00